#timestamp,LO_Frequency,Hit,StdDev 
1682287215.1,286046996.9,N
1682287216.0,286046996.9,N
1682287235.8,286046998.1,N
1682287255.7,286046998.1,N
1682287275.5,286047000.9,N
1682287295.3,286047002.3,N
1682287315.2,286047000.0,N
1682287335.0,286047000.0,N
1682287335.9,286047000.0,N
1682287355.7,286046998.2,N
1682287375.6,286046999.3,N
1682287395.4,286046999.3,N
1682287415.3,286046997.0,N
1682287435.1,286046999.5,N
1682287436.0,286046999.5,N
1682287455.8,286046999.4,N
1682287475.7,286047000.7,N
1682287495.5,286047002.8,N
1682287515.3,286047002.6,N
1682287535.2,286047002.1,N
1682287555.0,286047001.9,N
1682287555.9,286047001.9,N
1682287575.8,286047002.6,N
1682287595.6,286047002.4,N
1682287615.4,286047002.8,N
1682287635.3,286047000.5,N
1682287655.1,286046998.3,N
1682287675.8,286047001.2,N
1682287695.7,286047001.0,N
1682287715.5,286046998.2,N
1682287735.4,286046998.7,N
1682287755.2,286047001.1,N
1682287775.0,286047002.5,N
1682287775.9,286047002.5,N
1682287795.8,286047002.4,N
1682287815.6,286047001.9,N
1682287835.4,286047002.2,N
1682287855.3,286047002.7,N
1682287875.1,286046999.8,N
1682287895.9,286046998.3,N
1682287915.7,286047000.5,N
1682287935.5,286047000.4,N
1682287955.4,286047000.2,N
1682287975.2,286047002.7,N
1682287995.0,286047002.0,N
1682287995.9,286047002.0,N
1682288015.8,286047003.4,N
1682288035.6,286047003.3,N
1682288055.5,286047001.5,N
1682288075.3,286047002.1,N
1682288095.1,286047002.2,N
1682288115.9,286047000.4,N
1682288135.7,286047000.6,N
1682288155.5,286047002.3,N
1682288175.4,286046999.7,N
1682288195.2,286047001.0,N
1682288215.1,286047000.5,N
1682288216.0,286047000.5,N
1682288235.8,286047000.2,N
1682288255.6,286047000.2,N
1682288275.5,286047002.6,N
1682288295.3,286047002.8,N
1682288315.1,286047000.2,N
1682288335.9,286047002.7,N
1682288355.7,286047000.3,N
1682288375.6,286047000.4,N
1682288395.4,286047000.5,N
1682288415.2,286046999.8,N
1682288435.1,286047000.2,N
1682288436.0,286047000.2,N
1682288455.8,286047000.2,N
1682288475.6,286047000.6,N
1682288495.5,286047002.4,N
1682288515.3,286047001.9,N
1682288535.2,286047002.7,N
1682288555.9,286047003.5,Y
1682288575.7,286047001.6,P
1682288595.6,286047003.2,P
1682288615.4,286047003.2,P
1682288635.3,286047003.5,Y
1682288655.1,286047002.3,P
1682288656.0,286047002.3,P
1682288675.8,286047002.3,P
1682288695.7,286047001.4,Y
1682288715.5,286047000.7,P
1682288735.3,286046998.1,N
1682288755.2,286047001.2,N
1682288775.0,286046999.1,N
1682288775.9,286046999.1,N
1682288795.8,286046997.2,N
1682288815.6,286046999.1,N
1682288835.4,286046996.9,N
1682288855.3,286046996.9,N
1682288875.1,286046998.7,N
1682288895.8,286046996.5,N
1682288915.7,286046999.5,N
1682288935.5,286046997.5,N
1682288955.4,286047011.9,Y
1682288975.2,286046998.9,P
1682288995.0,286046998.1,P
1682288995.9,286046998.1,P
1682289015.8,286047000.2,N
1682289035.6,286047001.8,N
1682289055.5,286047001.3,N
1682289075.3,286047001.5,N
1682289095.1,286047003.1,N
1682289115.9,286047002.1,N
1682289135.7,286047000.4,N
1682289155.5,286046999.8,N
1682289175.4,286047002.7,N
1682289195.2,286047000.6,N
1682289215.1,286047000.5,N
1682289216.0,286047000.5,N
1682289235.8,286047002.8,N
1682289255.6,286047001.6,N
1682289275.5,286047003.1,N
1682289295.3,286047003.0,N
1682289315.1,286047005.2,Y
1682289335.9,286047002.9,P
1682289355.7,286047005.6,P
1682289375.6,286047007.6,P
1682289395.4,286047006.7,N
1682289415.2,286047009.2,Y
1682289435.1,286047004.1,P
1682289436.0,286047004.1,P
1682289455.8,286047003.7,P
1682289475.7,286047003.6,Y
1682289495.5,286047001.2,P
1682289515.3,286046999.2,N
1682289535.2,286046997.8,N
1682289555.0,286046996.2,N
1682289555.9,286046996.2,N
1682289575.7,286046993.3,N
1682289595.6,286046996.3,N
1682289615.4,286046994.3,N
1682289635.3,286046991.8,N
1682289655.1,286046992.5,N
1682289656.0,286046992.5,N
1682289675.8,286046990.5,N
1682289695.7,286046988.7,N
1682289715.5,286046990.9,N
1682289735.3,286046988.7,N
1682289755.2,286046989.2,N
1682289775.0,286046988.5,N
1682289775.9,286046988.5,N
1682289795.8,286046989.2,N
1682289815.6,286046987.2,N
1682289835.4,286046987.6,N
1682289855.3,286046986.1,Y
1682289875.1,286046992.0,P
1682289895.9,286046992.2,P
1682289915.7,286046992.3,P
1682289935.5,286046992.2,Y
1682289955.4,286047000.7,P
1682289975.2,286047002.7,N
1682289995.0,286047002.0,N
1682289996.0,286047002.0,N
1682290015.8,286047000.6,N
1682290035.6,286046998.3,N
1682290055.5,286046998.1,N
1682290075.3,286046998.2,N
1682290095.1,286046998.6,N
1682290115.9,286047000.9,N
1682290135.7,286047002.7,N
1682290155.5,286047002.8,N
1682290175.4,286047002.4,N
1682290195.2,286047001.8,N
1682290215.1,286046999.8,N
1682290216.0,286046999.8,N
1682290235.8,286047000.0,N
1682290255.6,286047001.2,N
1682290275.5,286046998.1,N
1682290295.3,286046999.4,N
1682290315.1,286047011.9,Y
1682290335.9,286046997.8,P
1682290355.7,286046996.5,P
1682290375.6,286046998.8,N
1682290395.4,286046999.4,N
1682290415.2,286046996.5,N
1682290435.1,286046999.6,N
1682290436.0,286046999.6,N
1682290455.8,286047011.9,Y
1682290475.6,286047000.2,P
1682290495.5,286047000.3,N
1682290515.3,286047002.7,P
1682290535.2,286047000.1,N
1682290555.9,286047002.7,N
1682290575.7,286047002.2,N
1682290595.6,286047002.8,N
1682290615.4,286047000.2,N
1682290635.2,286047002.0,N
1682290655.1,286047001.6,N
1682290656.0,286047001.6,N
1682290675.8,286047001.6,N
1682290695.7,286047002.4,N
1682290715.5,286047002.0,N
1682290735.3,286047001.7,N
1682290755.2,286047001.3,N
1682290775.0,286047001.5,N
1682290775.9,286047001.5,N
1682290795.7,286047001.4,N
